This is the latest recevied weather packets stored in our database for station/object DC8RAI-12. If no packets are shown the sender has not sent any weather packets the latest 10 day(s).
| Time | Temp. | Humidity | Pressure | Rain* | Wind** | Luminosity | Snow |
|---|---|---|---|---|---|---|---|
| 1777413586 | 11.11° C | 65% | 1018.2 hPa | - | - | - | - |
| 1777412686 | 11.67° C | 64% | 1018.2 hPa | - | - | - | - |
| 1777411786 | 11.67° C | 63% | 1018.1 hPa | - | - | - | - |
| 1777410886 | 11.67° C | 64% | 1018.1 hPa | - | - | - | - |
| 1777409986 | 11.67° C | 64% | 1018 hPa | - | - | - | - |
| 1777409086 | 12.22° C | 62% | 1017.9 hPa | - | - | - | - |
| 1777408186 | 12.22° C | 63% | 1017.7 hPa | - | - | - | - |
| 1777407286 | 12.78° C | 62% | 1017.8 hPa | - | - | - | - |
| 1777406386 | 12.78° C | 62% | 1017.7 hPa | - | - | - | - |
| 1777405485 | 13.33° C | 59% | 1017.6 hPa | - | - | - | - |
| 1777404585 | 13.33° C | 59% | 1017.5 hPa | - | - | - | - |
| 1777403685 | 13.89° C | 58% | 1017.4 hPa | - | - | - | - |
| 1777402785 | 13.89° C | 58% | 1017.2 hPa | - | - | - | - |
| 1777401890 | 15° C | 54% | 1017.2 hPa | - | - | - | - |
| 1777400990 | 15° C | 49% | 1017 hPa | - | - | - | - |
| 1777400090 | 15.56° C | 46% | 1016.9 hPa | - | - | - | - |
| 1777399189 | 15.56° C | 56% | 1016.8 hPa | - | - | - | - |
| 1777398289 | 16.67° C | 51% | 1016.7 hPa | - | - | - | - |
| 1777397389 | 17.22° C | 48% | 1016.6 hPa | - | - | - | - |
| 1777396489 | 17.78° C | 44% | 1016.4 hPa | - | - | - | - |
| 1777395589 | 17.78° C | 39% | 1016.2 hPa | - | - | - | - |
| 1777394689 | 18.33° C | 41% | 1016.2 hPa | - | - | - | - |
| 1777393789 | 18.89° C | 38% | 1016.2 hPa | - | - | - | - |
| 1777392889 | 18.89° C | 36% | 1016.3 hPa | - | - | - | - |
| 1777391989 | 19.44° C | 36% | 1016.1 hPa | - | - | - | - |
* Rain since midnight (hover to see other rain measurements)
** Current wind speed in m/s (hover to see current wind gust speed)